Wind_Speed
64 59 57 62 56 53 50 48 43 40 37 32 30 25 23 20 18 14 11 8 8 8 2 3 3 4 2 4 7 13 17 16 18 16 18 22 20 20 18 16 16 14 13 13
68 61 70 64 60 58 53 52 51 46 43 38 34 30 24 23 17 16 15 13 11 7 3 2 3 3 4 5 8 12 17 18 19 18 20 25 23 20 17 14 12 11 9 9
71 73 73 71 67 62 59 57 60 56 50 46 40 34 29 26 24 21 17 15 11 8 7 3 3 1 5 4 7 11 16 17 17 17 19 23 23 19 15 12 9 7 6 6
78 78 77 75 72 68 63 66 67 64 55 53 46 40 34 28 26 21 21 17 16 12 11 6 4 5 4 6 6 12 15 17 19 20 21 23 25 21 17 9 7 7 3 3
88 86 82 78 79 77 73 72 68 69 63 59 49 45 40 32 29 29 27 23 20 17 13 8 8 8 7 8 7 11 14 18 21 24 25 24 23 19 16 10 7 11 6 3
96 94 90 83 87 84 87 79 75 76 71 60 55 47 45 37 42 37 30 28 25 20 15 15 13 14 10 8 11 13 15 17 20 25 26 25 26 21 15 14 11 11 8 6
102 101 98 94 92 90 89 85 82 80 74 54 59 52 48 46 47 41 36 31 28 22 21 18 16 13 16 14 11 17 16 18 21 22 23 25 26 25 21 17 15 13 10 9
101 107 104 103 98 94 93 91 86 80 72 62 63 52 49 51 53 46 40 37 29 28 25 21 16 16 18 19 16 16 18 16 22 23 24 24 23 24 24 22 18 15 13 13
105 104 108 109 107 105 97 92 85 87 80 69 63 58 57 56 56 49 43 40 36 34 30 27 23 21 23 22 20 20 17 18 19 23 22 25 24 24 25 23 21 18 16 16
107 107 109 113 113 112 105 95 102 91 84 72 68 61 59 63 62 55 51 44 43 40 35 30 29 23 25 24 23 23 20 18 19 18 25 26 26 24 25 25 23 19 19 16
106 107 110 113 117 116 110 109 102 93 86 77 70 63 64 62 67 63 56 53 49 44 38 33 32 27 23 24 28 26 23 19 21 24 28 29 27 27 29 27 25 23 20 18
107 106 110 113 117 121 118 114 107 100 86 79 75 68 74 69 66 66 59 56 51 46 42 36 32 28 23 24 26 32 31 26 23 26 27 30 31 31 31 30 29 28 25 23
102 107 108 114 119 123 125 118 113 102 92 85 79 71 78 75 71 68 63 59 53 48 41 35 32 29 28 25 25 32 33 29 26 23 24 30 34 35 34 33 32 29 27 26
94 103 109 114 121 125 125 123 117 108 99 88 81 78 82 80 75 71 68 61 53 48 41 36 35 30 31 26 27 31 33 32 29 26 23 28 36 37 36 35 33 31 29 28
85 94 104 114 117 121 123 123 117 109 101 91 83 78 83 81 81 77 71 62 55 47 42 41 39 36 34 30 30 29 30 34 34 29 28 28 31 35 37 38 37 34 32 30
78 86 98 108 115 118 123 124 121 112 104 95 87 82 85 85 83 78 69 62 55 48 44 42 43 42 37 35 33 32 31 33 34 33 32 27 28 31 40 41 40 38 35 33
70 78 89 102 111 113 118 119 117 113 104 100 92 87 86 89 85 81 72 64 58 50 46 46 49 48 45 41 38 36 37 35 36 36 34 30 30 30 32 36 41 42 40 38
64 73 81 98 104 107 111 115 115 113 107 103 98 94 92 91 86 81 74 66 60 54 51 52 51 50 50 46 41 39 39 41 39 38 37 35 34 33 31 34 37 42 43 42
61 69 76 87 95 102 103 109 111 111 109 105 102 97 93 91 87 85 75 67 60 56 55 55 55 53 50 46 42 40 39 40 41 40 41 41 39 36 36 34 35 36 42 46
57 64 70 77 85 93 96 103 107 109 111 107 105 101 98 94 89 85 76 69 64 63 65 63 61 54 48 48 46 43 41 42 43 44 45 45 43 41 40 38 34 34 38 42
47 54 60 67 74 83 96 99 102 109 106 108 103 104 101 95 89 83 76 73 69 69 70 67 59 56 53 51 49 47 46 47 46 45 46 45 45 45 43 39 36 37 38 42
40 47 52 61 71 83 92 96 101 102 106 107 106 104 101 96 90 86 81 77 71 71 72 64 60 58 55 53 51 49 49 49 49 46 44 44 43 45 46 44 41 41 40 42
39 45 50 58 67 79 89 92 94 99 105 107 108 103 99 96 91 88 87 80 77 77 71 66 62 58 56 55 53 49 48 50 48 45 43 44 44 47 49 48 45 43 42 42
35 44 50 59 70 78 84 90 95 97 103 106 106 102 99 96 93 89 86 83 80 79 75 70 67 61 58 54 50 48 49 51 48 47 45 44 45 46 48 50 49 47 46 43
37 44 52 59 65 74 82 89 94 96 102 105 101 101 101 97 94 90 85 79 79 80 77 74 71 65 61 56 53 52 52 52 49 47 44 45 46 48 48 50 53 53 50 47
39 44 52 59 65 72 70 85 92 94 100 101 96 97 101 98 95 90 86 77 76 71 76 74 73 69 65 61 57 54 53 52 50 47 43 43 45 49 52 53 55 59 54 52
Wind_Direction
231 231 234 231 233 233 232 240 238 238 235 229 230 225 223 222 226 227 223 230 224 279 323 35 3 259 274 260 176 158 148 152 151 156 161 161 155 146 140 131 121 119 111 107
233 234 235 230 231 232 231 232 236 235 234 229 225 227 222 229 231 219 220 215 241 250 248 126 2 225 197 240 197 172 162 162 161 165 166 158 158 154 150 145 133 127 115 98
234 234 235 231 229 230 230 227 231 230 229 230 225 224 221 220 224 227 230 230 241 235 256 174 251 53 213 225 273 195 177 178 170 168 172 173 169 163 152 164 156 150 130 89
234 234 233 233 230 229 229 229 228 231 227 229 225 226 226 226 230 230 232 231 229 226 241 251 184 199 231 185 244 224 193 189 182 174 175 181 184 181 174 168 174 184 188 117
236 234 232 230 231 228 228 228 228 231 229 228 226 227 228 227 228 228 234 235 241 243 224 230 186 207 214 225 219 247 222 198 197 186 187 191 194 203 209 210 200 199 218 213
235 234 233 229 230 227 229 227 226 229 229 228 230 227 233 226 223 230 230 234 236 241 229 215 224 204 219 237 234 230 245 217 206 206 200 198 205 209 213 215 212 220 218 229
234 233 231 229 228 228 229 228 228 228 231 221 227 223 230 228 232 232 228 235 240 240 242 236 222 225 223 223 251 239 232 236 217 217 214 209 213 221 223 223 222 228 229 229
231 231 230 230 228 227 228 226 226 228 228 222 221 220 224 224 229 228 228 234 233 230 231 228 218 231 226 226 229 239 235 241 243 223 220 216 216 222 228 228 226 224 232 232
230 228 229 227 227 227 227 227 226 225 225 219 220 216 219 222 228 227 225 229 227 225 225 235 227 218 231 230 227 227 226 226 252 243 222 221 217 219 224 226 225 222 229 234
230 227 225 226 225 226 225 223 225 222 222 218 219 214 216 218 225 224 222 219 220 220 222 222 238 218 225 228 223 229 221 226 234 259 236 222 222 218 223 223 225 224 229 237
228 225 224 223 223 224 223 223 224 221 218 216 215 211 215 219 221 220 219 217 215 217 219 219 228 232 232 229 219 220 216 219 232 236 239 223 224 219 222 226 225 227 234 238
226 224 222 220 221 221 221 222 220 219 215 215 215 210 216 221 218 225 222 221 221 222 221 222 233 233 233 235 229 220 227 234 234 237 240 233 226 226 226 229 231 234 235 240
224 221 219 219 218 219 219 219 219 218 213 212 211 209 217 221 218 221 223 223 222 221 223 225 230 230 227 229 232 230 227 229 227 231 236 234 228 230 231 234 234 234 237 240
224 221 217 218 217 218 217 217 217 214 212 209 208 207 216 220 220 219 222 224 222 221 220 221 228 232 237 233 227 229 230 224 229 234 238 239 234 233 232 237 240 240 241 241
223 220 217 216 217 214 216 215 216 214 210 207 208 206 216 219 221 218 219 220 221 221 219 218 221 226 233 230 230 233 232 232 231 234 237 238 239 237 233 234 237 240 241 245
224 220 217 215 216 212 213 214 212 212 208 207 207 207 213 218 221 221 219 220 220 217 217 220 221 225 228 233 233 232 234 237 235 235 239 240 242 239 238 237 237 239 241 243
219 219 215 215 214 213 211 212 211 210 206 205 205 208 212 217 220 221 218 216 218 217 216 220 223 224 227 231 234 234 235 235 239 240 240 239 241 244 242 244 241 240 241 244
214 217 212 214 213 212 210 210 210 207 205 203 204 207 211 215 219 222 218 214 215 216 216 220 224 226 228 230 235 240 243 242 240 241 242 240 240 242 245 245 247 245 241 242
211 212 211 212 211 211 209 208 208 206 204 201 202 207 211 214 215 221 219 216 215 215 217 218 220 224 228 232 237 241 244 245 245 246 241 240 241 242 244 249 250 249 246 244
209 210 208 208 208 207 207 206 206 205 204 201 202 206 211 213 212 219 219 217 213 214 219 218 220 224 227 233 237 239 241 242 242 246 247 244 243 242 243 247 253 255 250 250
207 207 205 205 204 204 204 203 203 204 203 201 201 207 211 212 212 215 218 216 215 215 220 220 219 222 228 230 236 238 239 241 240 244 249 249 249 246 245 246 249 255 251 247
197 199 200 200 200 199 203 201 200 201 201 200 199 208 210 211 212 214 216 216 215 220 223 222 222 222 227 231 235 238 240 243 244 243 248 251 253 252 247 245 245 252 255 248
188 190 192 193 195 198 202 198 198 200 199 199 200 207 209 210 213 214 216 217 216 219 223 225 226 225 227 231 233 237 240 243 245 246 247 249 250 251 248 245 244 248 253 257
177 184 187 190 192 196 200 193 194 198 197 199 201 206 207 208 213 214 215 216 218 221 221 224 226 226 226 229 232 235 237 240 243 244 246 246 249 249 249 247 244 246 250 255
172 183 183 190 193 197 198 190 194 194 195 199 201 205 206 208 212 214 215 216 218 223 223 223 226 226 226 226 229 232 234 238 242 243 246 249 249 248 246 244 243 243 245 250
176 178 182 189 192 198 195 191 191 194 195 197 200 204 206 207 212 214 215 214 217 220 224 224 225 223 224 226 227 230 233 236 243 243 243 249 256 258 256 251 245 244 240 245
Height
10877 10886 10889 10886 10898 10907 10915 10917 10925 10928 10934 10942 10947 10953 10957 10960 10963 10967 10969 10972 10972 10973 10973 10973 10973 10975 10977 10978 10977 10978 10979 10982 10985 10989 10990 10993 10996 10997 10999 11001 11001 11003 11004 11004
10864 10873 10861 10879 10888 10895 10905 10910 10913 10920 10926 10933 10941 10947 10953 10956 10960 10962 10964 10968 10969 10970 10971 10972 10972 10973 10975 10978 10978 10979 10980 10982 10985 10989 10992 10993 10996 10999 11001 11003 11004 11005 11006 11007
10844 10847 10852 10864 10874 10883 10890 10897 10896 10905 10915 10922 10932 10941 10947 10952 10954 10957 10961 10964 10966 10967 10968 10970 10972 10973 10974 10977 10979 10980 10980 10983 10985 10988 10992 10995 10996 10999 11002 11005 11005 11007 11007 11008
10825 10827 10838 10850 10860 10867 10878 10874 10879 10892 10906 10912 10923 10932 10939 10947 10949 10954 10956 10960 10962 10963 10966 10967 10970 10972 10974 10975 10978 10980 10981 10983 10985 10988 10991 10995 10997 10999 11001 11005 11006 11008 11009 11010
10804 10804 10815 10831 10836 10847 10854 10857 10873 10878 10894 10901 10916 10926 10932 10941 10944 10946 10950 10955 10958 10960 10963 10965 10967 10969 10973 10974 10976 10980 10982 10983 10986 10988 10990 10993 10997 10999 11001 11003 11006 11009 11011 11012
10771 10783 10794 10812 10810 10827 10821 10842 10854 10864 10878 10897 10909 10921 10926 10935 10931 10938 10945 10949 10952 10956 10960 10961 10963 10966 10969 10973 10974 10977 10980 10983 10984 10987 10988 10992 10995 10998 11000 11002 11006 11009 11011 11012
10740 10754 10769 10780 10789 10802 10808 10826 10837 10850 10865 10901 10895 10911 10914 10921 10924 10932 10938 10943 10947 10951 10955 10957 10959 10962 10965 10969 10972 10974 10977 10981 10982 10985 10988 10990 10993 10996 10999 11001 11004 11008 11010 11011
10706 10720 10739 10755 10770 10781 10788 10802 10823 10840 10859 10877 10884 10904 10905 10907 10910 10923 10931 10936 10943 10945 10948 10951 10954 10957 10962 10964 10968 10971 10973 10977 10981 10982 10985 10987 10990 10993 10997 11000 11002 11005 11008 11009
10671 10689 10706 10724 10738 10748 10771 10790 10815 10817 10835 10854 10877 10887 10879 10893 10899 10913 10922 10929 10934 10937 10941 10943 10948 10951 10956 10960 10962 10966 10969 10972 10976 10981 10983 10984 10987 10990 10994 10997 11000 11002 11005 11007
10634 10655 10673 10690 10710 10721 10743 10773 10764 10798 10821 10843 10859 10874 10874 10879 10885 10898 10909 10918 10922 10928 10935 10939 10942 10944 10950 10954 10958 10961 10965 10968 10972 10977 10980 10981 10984 10988 10991 10993 10997 10999 11000 11004
10595 10620 10640 10656 10675 10696 10721 10731 10752 10785 10806 10827 10843 10861 10858 10861 10872 10881 10895 10903 10911 10919 10926 10932 10935 10939 10944 10948 10951 10956 10960 10964 10967 10971 10974 10977 10980 10984 10987 10990 10993 10995 10997 11000
10558 10585 10605 10630 10644 10664 10686 10708 10732 10755 10794 10813 10828 10844 10833 10843 10860 10870 10883 10891 10901 10910 10918 10925 10930 10935 10939 10942 10946 10949 10953 10958 10961 10964 10968 10971 10975 10978 10982 10986 10989 10992 10994 10996
10527 10551 10574 10591 10609 10628 10649 10680 10706 10741 10771 10794 10812 10831 10822 10828 10844 10858 10869 10879 10891 10901 10910 10918 10925 10929 10933 10936 10940 10943 10947 10950 10955 10959 10962 10967 10969 10972 10976 10980 10983 10986 10989 10992
10498 10521 10541 10557 10570 10594 10625 10654 10680 10718 10749 10778 10798 10810 10807 10815 10828 10843 10856 10868 10882 10892 10901 10910 10917 10922 10927 10931 10933 10936 10940 10945 10948 10953 10957 10960 10963 10965 10970 10974 10977 10980 10983 10987
10473 10494 10514 10527 10546 10576 10602 10632 10666 10701 10735 10763 10783 10797 10795 10800 10808 10823 10840 10860 10872 10883 10893 10899 10907 10912 10919 10924 10927 10929 10934 10938 10942 10946 10950 10953 10957 10961 10964 10967 10970 10974 10976 10981
10453 10472 10489 10506 10522 10551 10576 10604 10641 10678 10717 10748 10767 10783 10783 10784 10793 10813 10836 10851 10863 10875 10885 10893 10898 10903 10909 10914 10918 10922 10926 10930 10933 10938 10942 10947 10950 10953 10956 10959 10963 10966 10970 10973
10433 10449 10469 10486 10499 10529 10559 10592 10627 10661 10700 10726 10747 10763 10769 10772 10780 10799 10821 10839 10853 10865 10875 10882 10887 10892 10897 10902 10907 10913 10917 10921 10924 10928 10934 10939 10943 10945 10948 10952 10955 10958 10962 10966
10416 10431 10451 10461 10487 10514 10549 10575 10609 10647 10677 10705 10724 10737 10746 10758 10773 10788 10807 10825 10839 10851 10861 10867 10873 10881 10885 10890 10897 10904 10909 10912 10915 10920 10925 10930 10934 10937 10940 10942 10945 10950 10954 10958
10403 10416 10434 10451 10475 10503 10533 10564 10597 10628 10660 10686 10707 10721 10733 10746 10765 10775 10795 10813 10827 10838 10845 10851 10859 10865 10873 10880 10886 10892 10898 10903 10907 10911 10914 10919 10924 10929 10932 10933 10937 10941 10945 10949
10396 10409 10426 10444 10467 10495 10528 10553 10584 10613 10640 10668 10690 10704 10715 10733 10754 10767 10785 10799 10812 10821 10826 10836 10844 10854 10864 10869 10874 10880 10885 10891 10896 10900 10903 10908 10913 10918 10922 10926 10930 10932 10936 10940
10394 10407 10423 10439 10464 10492 10512 10541 10571 10596 10633 10658 10682 10687 10698 10723 10744 10761 10776 10784 10793 10803 10809 10822 10837 10845 10849 10856 10861 10867 10874 10880 10883 10889 10894 10899 10903 10908 10913 10918 10922 10922 10925 10929
10394 10408 10422 10441 10460 10480 10504 10531 10556 10591 10618 10643 10663 10668 10689 10712 10732 10745 10760 10770 10782 10786 10794 10812 10822 10830 10836 10843 10851 10858 10863 10868 10874 10879 10884 10890 10894 10898 10902 10906 10910 10913 10915 10916
10395 10409 10423 10439 10459 10478 10495 10526 10559 10582 10606 10628 10648 10654 10679 10703 10717 10731 10744 10759 10769 10772 10784 10795 10806 10816 10824 10831 10841 10848 10855 10858 10865 10871 10875 10879 10883 10887 10891 10895 10898 10902 10904 10905
10403 10412 10428 10441 10456 10472 10491 10523 10545 10571 10598 10618 10634 10645 10669 10691 10702 10715 10730 10745 10758 10764 10775 10784 10792 10801 10811 10820 10829 10835 10842 10846 10852 10858 10863 10867 10871 10875 10879 10883 10887 10890 10893 10896
10406 10415 10429 10441 10456 10471 10488 10518 10542 10562 10585 10606 10622 10636 10659 10678 10691 10703 10717 10733 10748 10755 10764 10772 10781 10790 10799 10808 10815 10822 10829 10835 10840 10847 10854 10857 10860 10862 10865 10870 10873 10877 10883 10885
10410 10421 10433 10445 10458 10472 10494 10516 10535 10557 10578 10596 10611 10627 10647 10666 10679 10693 10707 10721 10734 10746 10752 10761 10768 10777 10786 10793 10801 10809 10817 10825 10830 10836 10842 10847 10850 10852 10852 10855 10858 10862 10871 10879